owner,sensor,date,latitude,longitude,vertical_datum,direction_of_sea_water_velocity,sea_water_speed,upward_sea_water_velocity,qcFlag 
TABS,ioos:station:wmo:42047:1,2015-07-01T00:00:00Z,27.8966,-93.5973,2.0,162.7969869,60.59059993,-99999.0,'11111222,11111222,99999999' 
TABS,ioos:station:wmo:42047:1,2015-07-01T00:30:00Z,27.8966,-93.5973,2.0,161.5493692,58.39145914,-99999.0,'11111222,11111222,99999999' 
TABS,ioos:station:wmo:42047:1,2015-07-01T01:00:00Z,27.8966,-93.5973,2.0,173.943055,54.02155496,-99999.0,'11111222,11111222,99999999' 
TABS,ioos:station:wmo:42047:1,2015-07-01T01:30:00Z,27.8966,-93.5973,2.0,196.9222652,47.68478583,-99999.0,'11111222,11111222,99999999' 
TABS,ioos:station:wmo:42047:1,2015-07-01T02:00:00Z,27.8966,-93.5973,2.0,194.5860312,45.98202257,-99999.0,'11111222,11111222,99999999' 
TABS,ioos:station:wmo:42047:1,2015-07-01T02:30:00Z,27.8966,-93.5973,2.0,201.6974156,51.28356559,-99999.0,'11111222,11111222,99999999' 
TABS,ioos:station:wmo:42047:1,2015-07-01T03:00:00Z,27.8966,-93.5973,2.0,222.0308264,47.51063249,-99999.0,'11111222,11111222,99999999' 
TABS,ioos:station:wmo:42047:1,2015-07-01T03:30:00Z,27.8966,-93.5973,2.0,259.0999355,70.38984657,-99999.0,'11111222,11111222,99999999' 
TABS,ioos:station:wmo:42047:1,2015-07-01T04:00:00Z,27.8966,-93.5973,2.0,261.2064249,73.20035314,-99999.0,'11111222,11111222,99999999' 
TABS,ioos:station:wmo:42047:1,2015-07-01T04:30:00Z,27.8966,-93.5973,2.0,250.3005492,73.24669071,-99999.0,'11111222,11111222,99999999' 
TABS,ioos:station:wmo:42047:1,2015-07-01T05:00:00Z,27.8966,-93.5973,2.0,258.4881255,66.34453783,-99999.0,'11111222,11111222,99999999' 
TABS,ioos:station:wmo:42047:1,2015-07-01T05:30:00Z,27.8966,-93.5973,2.0,266.6582968,57.47770785,-99999.0,'11111222,11111222,99999999' 
TABS,ioos:station:wmo:42047:1,2015-07-01T06:00:00Z,27.8966,-93.5973,2.0,268.1015875,51.32815991,-99999.0,'11111222,11111222,99999999' 
TABS,ioos:station:wmo:42047:1,2015-07-01T06:30:00Z,27.8966,-93.5973,2.0,275.6258956,40.1935766,-99999.0,'11111222,11111222,99999999' 
TABS,ioos:station:wmo:42047:1,2015-07-01T07:00:00Z,27.8966,-93.5973,2.0,283.5931133,34.46534491,-99999.0,'11111222,11111222,99999999' 
TABS,ioos:station:wmo:42047:1,2015-07-01T07:30:00Z,27.8966,-93.5973,2.0,321.0193029,27.58071972,-99999.0,'11111222,11111222,99999999' 
TABS,ioos:station:wmo:42047:1,2015-07-01T08:00:00Z,27.8966,-93.5973,2.0,338.9295145,24.75520147,-99999.0,'11111222,11111222,99999999' 
TABS,ioos:station:wmo:42047:1,2015-07-01T08:30:00Z,27.8966,-93.5973,2.0,356.5578606,30.1443892,-99999.0,'11111222,11111222,99999999' 
TABS,ioos:station:wmo:42047:1,2015-07-01T09:00:00Z,27.8966,-93.5973,2.0,0.365663199,28.22057406,-99999.0,'11111222,11111222,99999999' 
TABS,ioos:station:wmo:42047:1,2015-07-01T09:30:00Z,27.8966,-93.5973,2.0,6.18570498,33.13289151,-99999.0,'11111222,11111222,99999999' 
TABS,ioos:station:wmo:42047:1,2015-07-01T10:00:00Z,27.8966,-93.5973,2.0,11.9615205,33.2928656,-99999.0,'11111222,11111222,99999999' 
TABS,ioos:station:wmo:42047:1,2015-07-01T10:30:00Z,27.8966,-93.5973,2.0,20.73902039,34.84800855,-99999.0,'11111222,11111222,99999999' 
TABS,ioos:station:wmo:42047:1,2015-07-01T11:00:00Z,27.8966,-93.5973,2.0,25.9623856,29.3298909,-99999.0,'11111222,11111222,99999999' 
TABS,ioos:station:wmo:42047:1,2015-07-01T11:30:00Z,27.8966,-93.5973,2.0,26.92437495,39.95037547,-99999.0,'11111222,11111222,99999999' 
TABS,ioos:station:wmo:42047:1,2015-07-01T12:00:00Z,27.8966,-93.5973,2.0,35.05250237,41.99712847,-99999.0,'11111222,11111222,99999999' 
TABS,ioos:station:wmo:42047:1,2015-07-01T12:30:00Z,27.8966,-93.5973,2.0,40.92549551,41.99515448,-99999.0,'11111222,11111222,99999999' 
TABS,ioos:station:wmo:42047:1,2015-07-01T13:00:00Z,27.8966,-93.5973,2.0,47.14718445,40.39001114,-99999.0,'11111222,11111222,99999999' 
TABS,ioos:station:wmo:42047:1,2015-07-01T13:30:00Z,27.8966,-93.5973,2.0,41.41272065,41.13522335,-99999.0,'11111222,11111222,99999999' 
TABS,ioos:station:wmo:42047:1,2015-07-01T14:00:00Z,27.8966,-93.5973,2.0,43.86846268,41.89010504,-99999.0,'11111222,11111222,99999999' 
TABS,ioos:station:wmo:42047:1,2015-07-01T14:30:00Z,27.8966,-93.5973,2.0,46.81008883,40.96899437,-99999.0,'11111222,11111222,99999999' 
TABS,ioos:station:wmo:42047:1,2015-07-01T15:00:00Z,27.8966,-93.5973,2.0,53.28457188,47.50417245,-99999.0,'11111222,11111222,99999999' 
TABS,ioos:station:wmo:42047:1,2015-07-01T15:30:00Z,27.8966,-93.5973,2.0,51.61466806,41.74260174,-99999.0,'11111222,11111222,99999999' 
TABS,ioos:station:wmo:42047:1,2015-07-01T16:00:00Z,27.8966,-93.5973,2.0,54.19738453,47.24819573,-99999.0,'11111222,11111222,99999999' 
TABS,ioos:station:wmo:42047:1,2015-07-01T16:30:00Z,27.8966,-93.5973,2.0,55.91389626,48.14080701,-99999.0,'11111222,11111222,99999999' 
TABS,ioos:station:wmo:42047:1,2015-07-01T17:00:00Z,27.8966,-93.5973,2.0,60.42515866,50.59151016,-99999.0,'11111222,11111222,99999999' 
TABS,ioos:station:wmo:42047:1,2015-07-01T17:30:00Z,27.8966,-93.5973,2.0,63.95992201,48.81541253,-99999.0,'11111222,11111222,99999999' 
TABS,ioos:station:wmo:42047:1,2015-07-01T18:00:00Z,27.8966,-93.5973,2.0,67.4106758,49.15077619,-99999.0,'11111222,11111222,99999999' 
TABS,ioos:station:wmo:42047:1,2015-07-01T18:30:00Z,27.8966,-93.5973,2.0,74.1611683,49.49933838,-99999.0,'11111222,11111222,99999999' 
TABS,ioos:station:wmo:42047:1,2015-07-01T19:00:00Z,27.8966,-93.5973,2.0,77.62368499,52.58195983,-99999.0,'11111222,11111222,99999999' 
TABS,ioos:station:wmo:42047:1,2015-07-01T19:30:00Z,27.8966,-93.5973,2.0,77.01342249,53.62149755,-99999.0,'11111222,11111222,99999999' 
TABS,ioos:station:wmo:42047:1,2015-07-01T20:00:00Z,27.8966,-93.5973,2.0,78.81250792,57.82889676,-99999.0,'11111222,11111222,99999999' 
TABS,ioos:station:wmo:42047:1,2015-07-01T20:30:00Z,27.8966,-93.5973,2.0,81.80597957,60.83102005,-99999.0,'11111222,11111222,99999999' 
TABS,ioos:station:wmo:42047:1,2015-07-01T21:00:00Z,27.8966,-93.5973,2.0,90.13456426,59.6101644,-99999.0,'11111222,11111222,99999999' 
TABS,ioos:station:wmo:42047:1,2015-07-01T21:30:00Z,27.8966,-93.5973,2.0,93.0880838,64.78407366,-99999.0,'11111222,11111222,99999999' 
TABS,ioos:station:wmo:42047:1,2015-07-01T22:00:00Z,27.8966,-93.5973,2.0,94.12980051,63.73549247,-99999.0,'11111222,11111222,99999999' 
TABS,ioos:station:wmo:42047:1,2015-07-01T22:30:00Z,27.8966,-93.5973,2.0,100.646307,63.33014764,-99999.0,'11111222,11111222,99999999' 
TABS,ioos:station:wmo:42047:1,2015-07-01T23:00:00Z,27.8966,-93.5973,2.0,102.2412022,67.20807169,-99999.0,'11111222,11111222,99999999' 
TABS,ioos:station:wmo:42047:1,2015-07-01T23:30:00Z,27.8966,-93.5973,2.0,105.5166397,70.12590463,-99999.0,'11111222,11111222,99999999' 
TABS,ioos:station:wmo:42047:1,2015-07-02T00:00:00Z,27.8966,-93.5973,2.0,110.2018901,66.66088808,-99999.0,'11111222,11111222,99999999' 
TABS,ioos:station:wmo:42047:1,2015-07-02T00:30:00Z,27.8966,-93.5973,2.0,113.6128536,67.73094197,-99999.0,'11111222,11111222,99999999' 
TABS,ioos:station:wmo:42047:1,2015-07-02T01:00:00Z,27.8966,-93.5973,2.0,113.3268578,68.0090244,-99999.0,'11111222,11111222,99999999' 
TABS,ioos:station:wmo:42047:1,2015-07-02T01:30:00Z,27.8966,-93.5973,2.0,123.5166812,59.60003523,-99999.0,'11111222,11111222,99999999' 
TABS,ioos:station:wmo:42047:1,2015-07-02T02:00:00Z,27.8966,-93.5973,2.0,119.7642604,18.27031746,-99999.0,'11111222,11111222,99999999' 
TABS,ioos:station:wmo:42047:1,2015-07-02T02:30:00Z,27.8966,-93.5973,2.0,153.2365954,18.0988425,-99999.0,'11111222,11111222,99999999' 
TABS,ioos:station:wmo:42047:1,2015-07-02T03:00:00Z,27.8966,-93.5973,2.0,146.514375,21.74993333,-99999.0,'11111222,11111222,99999999' 
TABS,ioos:station:wmo:42047:1,2015-07-02T03:30:00Z,27.8966,-93.5973,2.0,144.6970352,34.88504694,-99999.0,'11111222,11111222,99999999' 
TABS,ioos:station:wmo:42047:1,2015-07-02T04:00:00Z,27.8966,-93.5973,2.0,145.2496894,18.43861708,-99999.0,'11111222,11111222,99999999' 
TABS,ioos:station:wmo:42047:1,2015-07-02T04:30:00Z,27.8966,-93.5973,2.0,190.7379353,13.36401886,-99999.0,'11111222,11111222,99999999' 
TABS,ioos:station:wmo:42047:1,2015-07-02T05:00:00Z,27.8966,-93.5973,2.0,210.4115935,13.53186609,-99999.0,'11111222,11111222,99999999' 
TABS,ioos:station:wmo:42047:1,2015-07-02T05:30:00Z,27.8966,-93.5973,2.0,219.3719316,15.57485152,-99999.0,'11111222,11111222,99999999' 
TABS,ioos:station:wmo:42047:1,2015-07-02T06:00:00Z,27.8966,-93.5973,2.0,230.3908389,24.61011377,-99999.0,'11111222,11111222,99999999' 
TABS,ioos:station:wmo:42047:1,2015-07-02T06:30:00Z,27.8966,-93.5973,2.0,235.9504259,19.46758588,-99999.0,'11111222,11111222,99999999' 
TABS,ioos:station:wmo:42047:1,2015-07-02T07:00:00Z,27.8966,-93.5973,2.0,241.3556696,20.46454739,-99999.0,'11111222,11111222,99999999' 
TABS,ioos:station:wmo:42047:1,2015-07-02T07:30:00Z,27.8966,-93.5973,2.0,250.5713862,35.02432583,-99999.0,'11111222,11111222,99999999' 
TABS,ioos:station:wmo:42047:1,2015-07-02T08:00:00Z,27.8966,-93.5973,2.0,255.2802132,18.10414593,-99999.0,'11111222,11111222,99999999' 
TABS,ioos:station:wmo:42047:1,2015-07-02T08:30:00Z,27.8966,-93.5973,2.0,272.4834553,34.39229129,-99999.0,'11111222,11111222,99999999' 
TABS,ioos:station:wmo:42047:1,2015-07-02T09:00:00Z,27.8966,-93.5973,2.0,283.704679,35.58299875,-99999.0,'11111222,11111222,99999999' 
TABS,ioos:station:wmo:42047:1,2015-07-02T09:30:00Z,27.8966,-93.5973,2.0,288.0871614,33.30572323,-99999.0,'11111222,11111222,99999999' 
TABS,ioos:station:wmo:42047:1,2015-07-02T10:00:00Z,27.8966,-93.5973,2.0,302.1632347,36.63154515,-99999.0,'11111222,11111222,99999999' 
TABS,ioos:station:wmo:42047:1,2015-07-02T10:30:00Z,27.8966,-93.5973,2.0,311.2303426,36.67213247,-99999.0,'11111222,11111222,99999999' 
TABS,ioos:station:wmo:42047:1,2015-07-02T11:00:00Z,27.8966,-93.5973,2.0,330.505909,25.81559606,-99999.0,'11111222,11111222,99999999' 
TABS,ioos:station:wmo:42047:1,2015-07-02T11:30:00Z,27.8966,-93.5973,2.0,335.128661,35.26030346,-99999.0,'11111222,11111222,99999999' 
TABS,ioos:station:wmo:42047:1,2015-07-02T12:00:00Z,27.8966,-93.5973,2.0,339.9623722,37.53194906,-99999.0,'11111222,11111222,99999999' 
TABS,ioos:station:wmo:42047:1,2015-07-02T12:30:00Z,27.8966,-93.5973,2.0,348.1313544,38.79950129,-99999.0,'11111222,11111222,99999999' 
TABS,ioos:station:wmo:42047:1,2015-07-02T13:00:00Z,27.8966,-93.5973,2.0,351.3238205,35.5973735,-99999.0,'11111222,11111222,99999999' 
TABS,ioos:station:wmo:42047:1,2015-07-02T13:30:00Z,27.8966,-93.5973,2.0,355.8507718,32.61549478,-99999.0,'11111222,11111222,99999999' 
TABS,ioos:station:wmo:42047:1,2015-07-02T14:00:00Z,27.8966,-93.5973,2.0,359.6780088,30.230478,-99999.0,'11111222,11144222,99999999' 
TABS,ioos:station:wmo:42047:1,2015-07-02T14:30:00Z,27.8966,-93.5973,2.0,10.50728063,29.39284947,-99999.0,'11111222,11111222,99999999' 
TABS,ioos:station:wmo:42047:1,2015-07-02T15:00:00Z,27.8966,-93.5973,2.0,11.44952167,31.43554835,-99999.0,'11111222,11111222,99999999' 
TABS,ioos:station:wmo:42047:1,2015-07-02T15:30:00Z,27.8966,-93.5973,2.0,24.20200722,33.29653736,-99999.0,'11111222,11111222,99999999' 
TABS,ioos:station:wmo:42047:1,2015-07-02T16:00:00Z,27.8966,-93.5973,2.0,23.90536099,39.60765835,-99999.0,'11111222,11111222,99999999' 
TABS,ioos:station:wmo:42047:1,2015-07-02T16:30:00Z,27.8966,-93.5973,2.0,35.80961608,42.14721818,-99999.0,'11111222,11111222,99999999' 
TABS,ioos:station:wmo:42047:1,2015-07-02T17:00:00Z,27.8966,-93.5973,2.0,45.06164725,46.08217551,-99999.0,'11111222,11111222,99999999' 
TABS,ioos:station:wmo:42047:1,2015-07-02T17:30:00Z,27.8966,-93.5973,2.0,49.37987627,49.2594864,-99999.0,'11111222,11111222,99999999' 
TABS,ioos:station:wmo:42047:1,2015-07-02T18:00:00Z,27.8966,-93.5973,2.0,52.19746055,50.00462579,-99999.0,'11111222,11111222,99999999' 
TABS,ioos:station:wmo:42047:1,2015-07-02T18:30:00Z,27.8966,-93.5973,2.0,57.88279298,52.64701511,-99999.0,'11111222,11111222,99999999' 
TABS,ioos:station:wmo:42047:1,2015-07-02T19:00:00Z,27.8966,-93.5973,2.0,57.7549319,58.51451529,-99999.0,'11111222,11111222,99999999' 
TABS,ioos:station:wmo:42047:1,2015-07-02T19:30:00Z,27.8966,-93.5973,2.0,58.65988902,59.25575499,-99999.0,'11111222,11111222,99999999' 
TABS,ioos:station:wmo:42047:1,2015-07-02T20:00:00Z,27.8966,-93.5973,2.0,58.67938836,61.11642169,-99999.0,'11111222,11111222,99999999' 
TABS,ioos:station:wmo:42047:1,2015-07-02T20:30:00Z,27.8966,-93.5973,2.0,60.92110537,61.68539941,-99999.0,'11111222,11111222,99999999' 
TABS,ioos:station:wmo:42047:1,2015-07-02T21:00:00Z,27.8966,-93.5973,2.0,66.30406559,59.59435712,-99999.0,'11111222,11111222,99999999' 
TABS,ioos:station:wmo:42047:1,2015-07-02T21:30:00Z,27.8966,-93.5973,2.0,72.05116707,58.15005417,-99999.0,'11111222,11111222,99999999' 
TABS,ioos:station:wmo:42047:1,2015-07-02T22:00:00Z,27.8966,-93.5973,2.0,76.69142319,52.5204741,-99999.0,'11111222,11111222,99999999' 
TABS,ioos:station:wmo:42047:1,2015-07-02T22:30:00Z,27.8966,-93.5973,2.0,82.57261762,55.4653847,-99999.0,'11111222,11111222,99999999' 
TABS,ioos:station:wmo:42047:1,2015-07-02T23:00:00Z,27.8966,-93.5973,2.0,86.38995045,55.10935402,-99999.0,'11111222,11111222,99999999' 
TABS,ioos:station:wmo:42047:1,2015-07-02T23:30:00Z,27.8966,-93.5973,2.0,83.33834496,56.29004352,-99999.0,'11111222,11111222,99999999' 
TABS,ioos:station:wmo:42047:1,2015-07-03T00:00:00Z,27.8966,-93.5973,2.0,89.21236937,53.10501765,-99999.0,'11111222,11111222,99999999' 
TABS,ioos:station:wmo:42047:1,2015-07-03T00:30:00Z,27.8966,-93.5973,2.0,94.27079337,49.81833498,-99999.0,'11111222,11111222,99999999' 
TABS,ioos:station:wmo:42047:1,2015-07-03T01:00:00Z,27.8966,-93.5973,2.0,95.8588578,51.13712252,-99999.0,'11111222,11111222,99999999' 
TABS,ioos:station:wmo:42047:1,2015-07-03T01:30:00Z,27.8966,-93.5973,2.0,99.72849273,51.66293933,-99999.0,'11111222,11111222,99999999' 
TABS,ioos:station:wmo:42047:1,2015-07-03T02:00:00Z,27.8966,-93.5973,2.0,115.6923636,30.53928617,-99999.0,'11111222,11111222,99999999' 
TABS,ioos:station:wmo:42047:1,2015-07-03T02:30:00Z,27.8966,-93.5973,2.0,122.0108084,33.1270539,-99999.0,'11111222,11111222,99999999' 
TABS,ioos:station:wmo:42047:1,2015-07-03T03:00:00Z,27.8966,-93.5973,2.0,109.1530586,36.33109963,-99999.0,'11111222,11111222,99999999' 
TABS,ioos:station:wmo:42047:1,2015-07-03T03:30:00Z,27.8966,-93.5973,2.0,120.6047222,47.35683372,-99999.0,'11111222,11111222,99999999' 
TABS,ioos:station:wmo:42047:1,2015-07-03T04:00:00Z,27.8966,-93.5973,2.0,113.0983863,38.31133644,-99999.0,'11111222,11111222,99999999' 
TABS,ioos:station:wmo:42047:1,2015-07-03T04:30:00Z,27.8966,-93.5973,2.0,112.834452,32.64869063,-99999.0,'11111222,11111222,99999999' 
TABS,ioos:station:wmo:42047:1,2015-07-03T05:00:00Z,27.8966,-93.5973,2.0,127.3031412,30.14686219,-99999.0,'11111222,11111222,99999999' 
TABS,ioos:station:wmo:42047:1,2015-07-03T05:30:00Z,27.8966,-93.5973,2.0,134.9596591,20.13840609,-99999.0,'11111222,11111222,99999999' 
TABS,ioos:station:wmo:42047:1,2015-07-03T06:00:00Z,27.8966,-93.5973,2.0,175.5689533,21.87537885,-99999.0,'11111222,11111222,99999999' 
TABS,ioos:station:wmo:42047:1,2015-07-03T06:30:00Z,27.8966,-93.5973,2.0,190.197371,30.10557756,-99999.0,'11111222,11111222,99999999' 
TABS,ioos:station:wmo:42047:1,2015-07-03T07:00:00Z,27.8966,-93.5973,2.0,196.562185,27.67838507,-99999.0,'11111222,11111222,99999999' 
TABS,ioos:station:wmo:42047:1,2015-07-03T07:30:00Z,27.8966,-93.5973,2.0,196.1152354,29.61369447,-99999.0,'11111222,11111222,99999999' 
TABS,ioos:station:wmo:42047:1,2015-07-03T08:00:00Z,27.8966,-93.5973,2.0,210.3456216,31.80797699,-99999.0,'11111222,11111222,99999999' 
TABS,ioos:station:wmo:42047:1,2015-07-03T08:30:00Z,27.8966,-93.5973,2.0,228.4895125,28.92480769,-99999.0,'11111222,11111222,99999999' 
TABS,ioos:station:wmo:42047:1,2015-07-03T09:00:00Z,27.8966,-93.5973,2.0,238.6199429,26.69445823,-99999.0,'11111222,11111222,99999999' 
TABS,ioos:station:wmo:42047:1,2015-07-03T09:30:00Z,27.8966,-93.5973,2.0,242.4885941,22.2116546,-99999.0,'11111222,11111222,99999999' 
TABS,ioos:station:wmo:42047:1,2015-07-03T10:00:00Z,27.8966,-93.5973,2.0,247.7070661,19.92955594,-99999.0,'11111222,11111222,99999999' 
TABS,ioos:station:wmo:42047:1,2015-07-03T10:30:00Z,27.8966,-93.5973,2.0,245.6917153,14.98881249,-99999.0,'11111222,11111222,99999999' 
TABS,ioos:station:wmo:42047:1,2015-07-03T11:00:00Z,27.8966,-93.5973,2.0,259.3759678,17.68309928,-99999.0,'11111222,11111222,99999999' 
TABS,ioos:station:wmo:42047:1,2015-07-03T11:30:00Z,27.8966,-93.5973,2.0,255.069728,24.10369681,-99999.0,'11111222,11111222,99999999' 
TABS,ioos:station:wmo:42047:1,2015-07-03T12:00:00Z,27.8966,-93.5973,2.0,263.3447246,21.31360598,-99999.0,'11111222,11111222,99999999' 
TABS,ioos:station:wmo:42047:1,2015-07-03T12:30:00Z,27.8966,-93.5973,2.0,263.6628765,18.211263,-99999.0,'11111222,11111222,99999999' 
TABS,ioos:station:wmo:42047:1,2015-07-03T13:00:00Z,27.8966,-93.5973,2.0,270.1589585,18.07006918,-99999.0,'11111222,11111222,99999999' 
TABS,ioos:station:wmo:42047:1,2015-07-03T13:30:00Z,27.8966,-93.5973,2.0,266.5659567,16.02877413,-99999.0,'11111222,11111222,99999999' 
TABS,ioos:station:wmo:42047:1,2015-07-03T14:00:00Z,27.8966,-93.5973,2.0,278.2861986,16.6538404,-99999.0,'11111222,11111222,99999999' 
TABS,ioos:station:wmo:42047:1,2015-07-03T14:30:00Z,27.8966,-93.5973,2.0,288.3617494,17.23758974,-99999.0,'11111222,11111222,99999999' 
TABS,ioos:station:wmo:42047:1,2015-07-03T15:00:00Z,27.8966,-93.5973,2.0,290.8459526,14.3599617,-99999.0,'11111222,11111222,99999999' 
TABS,ioos:station:wmo:42047:1,2015-07-03T15:30:00Z,27.8966,-93.5973,2.0,298.7127741,14.79974662,-99999.0,'11111222,11111222,99999999' 
TABS,ioos:station:wmo:42047:1,2015-07-03T16:00:00Z,27.8966,-93.5973,2.0,310.3735696,12.5354258,-99999.0,'11111222,11111222,99999999' 
TABS,ioos:station:wmo:42047:1,2015-07-03T16:30:00Z,27.8966,-93.5973,2.0,314.9677428,12.43801029,-99999.0,'11111222,11111222,99999999' 
TABS,ioos:station:wmo:42047:1,2015-07-03T17:00:00Z,27.8966,-93.5973,2.0,340.0329702,18.56604697,-99999.0,'11111222,11111222,99999999' 
TABS,ioos:station:wmo:42047:1,2015-07-03T17:30:00Z,27.8966,-93.5973,2.0,350.7056751,24.70434172,-99999.0,'11111222,11111222,99999999' 
TABS,ioos:station:wmo:42047:1,2015-07-03T18:00:00Z,27.8966,-93.5973,2.0,353.2140195,29.36573684,-99999.0,'11111222,11111222,99999999' 
TABS,ioos:station:wmo:42047:1,2015-07-03T18:30:00Z,27.8966,-93.5973,2.0,7.521914152,30.63359267,-99999.0,'11111222,11111222,99999999' 
TABS,ioos:station:wmo:42047:1,2015-07-03T19:00:00Z,27.8966,-93.5973,2.0,14.86503606,34.38059482,-99999.0,'11111222,11111222,99999999' 
TABS,ioos:station:wmo:42047:1,2015-07-03T19:30:00Z,27.8966,-93.5973,2.0,23.86292085,35.00208137,-99999.0,'11111222,11111222,99999999' 
TABS,ioos:station:wmo:42047:1,2015-07-03T20:00:00Z,27.8966,-93.5973,2.0,27.3697418,30.25698267,-99999.0,'11111222,11111222,99999999' 
TABS,ioos:station:wmo:42047:1,2015-07-03T20:30:00Z,27.8966,-93.5973,2.0,32.47239245,41.23740656,-99999.0,'11111222,11111222,99999999' 
TABS,ioos:station:wmo:42047:1,2015-07-03T21:00:00Z,27.8966,-93.5973,2.0,37.01759566,40.37813393,-99999.0,'11111222,11111222,99999999' 
TABS,ioos:station:wmo:42047:1,2015-07-03T21:30:00Z,27.8966,-93.5973,2.0,46.17903333,38.83545416,-99999.0,'11111222,11111222,99999999' 
TABS,ioos:station:wmo:42047:1,2015-07-03T22:00:00Z,27.8966,-93.5973,2.0,52.94939664,36.76218301,-99999.0,'11111222,11111222,99999999' 
TABS,ioos:station:wmo:42047:1,2015-07-03T22:30:00Z,27.8966,-93.5973,2.0,61.28896199,41.79906698,-99999.0,'11111222,11111222,99999999' 
TABS,ioos:station:wmo:42047:1,2015-07-03T23:00:00Z,27.8966,-93.5973,2.0,66.33521499,41.63076987,-99999.0,'11111222,11111222,99999999' 
TABS,ioos:station:wmo:42047:1,2015-07-03T23:30:00Z,27.8966,-93.5973,2.0,63.15418347,40.1468467,-99999.0,'11111222,11111222,99999999' 
TABS,ioos:station:wmo:42047:1,2015-07-04T00:00:00Z,27.8966,-93.5973,2.0,69.83046584,40.95128814,-99999.0,'11111222,11111222,99999999' 
TABS,ioos:station:wmo:42047:1,2015-07-04T00:30:00Z,27.8966,-93.5973,2.0,76.43460265,42.20747446,-99999.0,'11111222,11111222,99999999' 
TABS,ioos:station:wmo:42047:1,2015-07-04T01:00:00Z,27.8966,-93.5973,2.0,77.79782306,43.57444435,-99999.0,'11111222,11111222,99999999' 
TABS,ioos:station:wmo:42047:1,2015-07-04T01:30:00Z,27.8966,-93.5973,2.0,76.99541217,34.35103783,-99999.0,'11111222,11111222,99999999' 
TABS,ioos:station:wmo:42047:1,2015-07-04T02:00:00Z,27.8966,-93.5973,2.0,65.31268808,21.42856505,-99999.0,'11111222,11111222,99999999' 
TABS,ioos:station:wmo:42047:1,2015-07-04T02:30:00Z,27.8966,-93.5973,2.0,80.66219948,43.88148129,-99999.0,'11111222,11111222,99999999' 
TABS,ioos:station:wmo:42047:1,2015-07-04T03:00:00Z,27.8966,-93.5973,2.0,86.89882183,41.22036511,-99999.0,'11111222,11111222,99999999' 
TABS,ioos:station:wmo:42047:1,2015-07-04T03:30:00Z,27.8966,-93.5973,2.0,89.79803679,36.88022912,-99999.0,'11111222,11111222,99999999' 
TABS,ioos:station:wmo:42047:1,2015-07-04T04:00:00Z,27.8966,-93.5973,2.0,95.27295108,37.64932536,-99999.0,'11111222,11111222,99999999' 
TABS,ioos:station:wmo:42047:1,2015-07-04T04:30:00Z,27.8966,-93.5973,2.0,104.7990695,35.70440869,-99999.0,'11111222,11111222,99999999' 
TABS,ioos:station:wmo:42047:1,2015-07-04T05:00:00Z,27.8966,-93.5973,2.0,106.3552198,32.06764413,-99999.0,'11111222,11111222,99999999' 
TABS,ioos:station:wmo:42047:1,2015-07-04T05:30:00Z,27.8966,-93.5973,2.0,108.384224,28.59965035,-99999.0,'11111222,11111222,99999999' 
TABS,ioos:station:wmo:42047:1,2015-07-04T06:00:00Z,27.8966,-93.5973,2.0,109.6969914,29.4321338,-99999.0,'11111222,11111222,99999999' 
TABS,ioos:station:wmo:42047:1,2015-07-04T06:30:00Z,27.8966,-93.5973,2.0,124.2684643,25.82261025,-99999.0,'11111222,11111222,99999999' 
TABS,ioos:station:wmo:42047:1,2015-07-04T07:00:00Z,27.8966,-93.5973,2.0,124.0599482,22.76537063,-99999.0,'11111222,11111222,99999999' 
TABS,ioos:station:wmo:42047:1,2015-07-04T07:30:00Z,27.8966,-93.5973,2.0,121.4778093,19.11257178,-99999.0,'11111222,11111222,99999999' 
TABS,ioos:station:wmo:42047:1,2015-07-04T08:00:00Z,27.8966,-93.5973,2.0,144.1365178,22.08740818,-99999.0,'11111222,11111222,99999999' 
TABS,ioos:station:wmo:42047:1,2015-07-04T08:30:00Z,27.8966,-93.5973,2.0,168.4014851,23.37733946,-99999.0,'11111222,11111222,99999999' 
TABS,ioos:station:wmo:42047:1,2015-07-04T09:00:00Z,27.8966,-93.5973,2.0,174.4449973,21.5913918,-99999.0,'11111222,11111222,99999999' 
TABS,ioos:station:wmo:42047:1,2015-07-04T09:30:00Z,27.8966,-93.5973,2.0,186.9155319,19.0183727,-99999.0,'11111222,11111222,99999999' 
TABS,ioos:station:wmo:42047:1,2015-07-04T10:00:00Z,27.8966,-93.5973,2.0,179.5636373,14.45041868,-99999.0,'11111222,11111222,99999999' 
TABS,ioos:station:wmo:42047:1,2015-07-04T10:30:00Z,27.8966,-93.5973,2.0,165.3619618,9.932381386,-99999.0,'11133222,11111222,99999999' 
TABS,ioos:station:wmo:42047:1,2015-07-04T11:00:00Z,27.8966,-93.5973,2.0,176.4234635,14.42809759,-99999.0,'11111222,11111222,99999999' 
TABS,ioos:station:wmo:42047:1,2015-07-04T11:30:00Z,27.8966,-93.5973,2.0,177.408436,13.93424917,-99999.0,'11111222,11111222,99999999' 
TABS,ioos:station:wmo:42047:1,2015-07-04T12:00:00Z,27.8966,-93.5973,2.0,197.3617889,17.05715392,-99999.0,'11111222,11111222,99999999' 
TABS,ioos:station:wmo:42047:1,2015-07-04T12:30:00Z,27.8966,-93.5973,2.0,193.9271028,17.86520641,-99999.0,'11111222,11111222,99999999' 
TABS,ioos:station:wmo:42047:1,2015-07-04T13:00:00Z,27.8966,-93.5973,2.0,199.8417756,12.49160118,-99999.0,'11111222,11111222,99999999' 
TABS,ioos:station:wmo:42047:1,2015-07-04T13:30:00Z,27.8966,-93.5973,2.0,194.0251713,12.83256015,-99999.0,'11111222,11111222,99999999' 
TABS,ioos:station:wmo:42047:1,2015-07-04T14:00:00Z,27.8966,-93.5973,2.0,205.5850495,15.95444139,-99999.0,'11111222,11111222,99999999' 
TABS,ioos:station:wmo:42047:1,2015-07-04T14:30:00Z,27.8966,-93.5973,2.0,206.0293209,11.00640722,-99999.0,'11111222,11111222,99999999' 
TABS,ioos:station:wmo:42047:1,2015-07-04T15:00:00Z,27.8966,-93.5973,2.0,208.5355925,8.582633628,-99999.0,'11133222,11111222,99999999' 
TABS,ioos:station:wmo:42047:1,2015-07-04T15:30:00Z,27.8966,-93.5973,2.0,216.7816343,3.908004606,-99999.0,'11133222,11111222,99999999' 
TABS,ioos:station:wmo:42047:1,2015-07-04T16:00:00Z,27.8966,-93.5973,2.0,223.0856322,2.752180953,-99999.0,'11133222,11111222,99999999' 